(222453) = 2001 QW253

Discovered at Anderson Mesa on 2001-08-25 by LONEOS.

Orbit

Orbit type: Main Belt

Note: WebGL enabled browser required.

epoch2024-03-31.0
epoch JD2460400.5
perihelion date2022-01-23.77081
perihelion JD2459603.27082
argument of perihelion (°)12.04626
ascending node (°)4.80047
inclination (°)9.24395
eccentricity0.2117642
perihelion distance (AU)1.9909677
Tisserand w.r.t. Jupiter3.4
ΔV w.r.t. Earth (km/sec)9.3
semimajor axis (AU)2.5258528
mean anomaly (°)195.73802
mean daily motion (°/day)0.24552290
aphelion distance (AU)3.061
period (years)4.01
P-vector [x]0.95731027
P-vector [y]0.25008413
P-vector [z]0.14496545
Q-vector [x]-0.28874961
Q-vector [y]0.80400395
Q-vector [z]0.51980891
absolute magnitude16.4
phase slope0.15
uncertainty0
referenceE2024-H18
observations used516
oppositions14
arc length (days)8301
first opposition used2001
last opposition used2024
residual rms (arc-secs)0.68
perturbers coarse indicatorM-v
perturbers precise indicator003Ek
first observation date used2001-07-25.0
last observation date used2024-04-16.0
computer nameMPCLINUX
JD of orbit computation2456700.497012
perihelion JD uncertainty (days)1.4990E-04
argument of perihelion uncertainty (°)7.4995E-05
ascending node uncertainty (°)6.4307E-05
inclination uncertainty (°)1.5051E-05
eccentricity uncertainty 1.5649E-07
perihelion distance uncertainty (AU)3.9551E-07
Minimum Orbit Intersection Distances (in AU)
for orbit epoch: 2460400.5, reference: E2024-H18
Mercury1.6458
Venus1.2693
Earth0.99314
Mars0.58251
Jupiter2.40165
Saturn6.44091
Uranus15.4352
Neptune27.5563

Observations

510 total observations over interval: 2001 07 25.42443 – 2023 03 18.223201
These data are available for download (format description).

Date (UT) J2000 RA J2000 Dec Magn Location Ref
2001 07 25.42443 22 42 47.46 -20 29 36.9 20.1   608 – Haleakala-AMOS MPS 37887
2001 07 25.43516 22 42 47.17 -20 29 38.6 20.2   608 – Haleakala-AMOS MPS 37887
2001 07 25.44574 22 42 46.92 -20 29 39.7 19.8   608 – Haleakala-AMOS MPS 37887
2001 08 02.60052 22 38 30.40 -20 47 32.1 19.8   608 – Haleakala-AMOS MPS 37887
2001 08 02.61101 22 38 30.00 -20 47 33.3 20.3   608 – Haleakala-AMOS MPS 37887
2001 08 02.62158 22 38 29.55 -20 47 34.6 20.1   608 – Haleakala-AMOS MPS 37887
2001 08 19.27552 22 24 12.28 -21 19 19.1 18.9   704 – Lincoln Laboratory ETS, New Mexico MPS 37887
2001 08 19.28820 22 24 11.46 -21 19 21.0 19.1   704 – Lincoln Laboratory ETS, New Mexico MPS 37887
2001 08 19.30088 22 24 10.68 -21 19 21.5 18.9   704 – Lincoln Laboratory ETS, New Mexico MPS 37887
2001 08 19.31371 22 24 09.91 -21 19 22.5 19.0   704 – Lincoln Laboratory ETS, New Mexico MPS 37887
2001 08 19.32636 22 24 09.01 -21 19 23.7 18.7   704 – Lincoln Laboratory ETS, New Mexico MPS 37887
2001 08 24.31370 22 18 57.72 -21 23 19.1 19.4   608 – Haleakala-AMOS MPS 37887
2001 08 24.32447 22 18 57.03 -21 23 19.2 19.5   608 – Haleakala-AMOS MPS 37887
2001 08 24.33540 22 18 56.29 -21 23 20.8 19.7   608 – Haleakala-AMOS MPS 37887
2001 08 24.49906 22 18 45.36 -21 23 24.5 19.2   608 – Haleakala-AMOS MPS 37887
2001 08 24.51023 22 18 44.64 -21 23 24.4 19.1   608 – Haleakala-AMOS MPS 37887
2001 08 24.52043 22 18 43.98 -21 23 24.8 19.4   608 – Haleakala-AMOS MPS 37887
2001 08 25.25828 22 17 57.60 -21 23 39.4 17.8 R 699 – Lowell Observatory-LONEOS MPS 34903
2001 08 25.27398 22 17 56.47 -21 23 40.3   699 – Lowell Observatory-LONEOS MPS 34903
2001 08 25.28969 22 17 55.45 -21 23 40.3   699 – Lowell Observatory-LONEOS MPS 34903
2001 08 25.30533 22 17 54.39 -21 23 41.1   699 – Lowell Observatory-LONEOS MPS 34903
2001 08 27.26994 22 15 49.54 -21 23 47.2 18.3   644 – Palomar Mountain/NEAT MPS 34903
2001 08 27.28075 22 15 48.81 -21 23 47.2 18.3   644 – Palomar Mountain/NEAT MPS 34903
2001 08 27.29139 22 15 48.11 -21 23 47.0 18.4   644 – Palomar Mountain/NEAT MPS 34903
2001 09 10.25041 22 01 51.28 -21 02 48.9 18.0 R 699 – Lowell Observatory-LONEOS MPS 37887
2001 09 10.27392 22 01 49.91 -21 02 44.7   699 – Lowell Observatory-LONEOS MPS 37887
2001 09 10.29737 22 01 48.63 -21 02 40.4   699 – Lowell Observatory-LONEOS MPS 37887
2001 09 10.32080 22 01 47.25 -21 02 36.9   699 – Lowell Observatory-LONEOS MPS 37887
2001 09 11.19588 22 01 01.57 -20 59 55.8 19.2   704 – Lincoln Laboratory ETS, New Mexico MPS 37887
2001 09 11.22479 22 00 59.85 -20 59 50.1 19.0   704 – Lincoln Laboratory ETS, New Mexico MPS 37887
2001 09 11.23872 22 00 59.10 -20 59 48.9 19.4   704 – Lincoln Laboratory ETS, New Mexico MPS 37887
2001 09 11.25297 22 00 58.33 -20 59 45.4 19.1   704 – Lincoln Laboratory ETS, New Mexico MPS 37887
2001 09 19.18136 21 54 55.58 -20 28 26.7 19.1   704 – Lincoln Laboratory ETS, New Mexico MPS 37887
2001 09 19.21085 21 54 54.35 -20 28 17.9 19.5   704 – Lincoln Laboratory ETS, New Mexico MPS 37887
2001 09 19.22543 21 54 53.72 -20 28 13.4 19.0   704 – Lincoln Laboratory ETS, New Mexico MPS 37887
2004 04 30.31894 13 57 14.51 -19 40 39.9 21.2 V 291 – LPL/Spacewatch II MPS 139594
2004 04 30.32723 13 57 13.94 -19 40 37.9 22.1 V 291 – LPL/Spacewatch II MPS 139594
2004 04 30.33531 13 57 13.47 -19 40 36.8 21.5 V 291 – LPL/Spacewatch II MPS 139594
2005 06 20.44720 22 27 32.20 -21 39 17.4 20.3   644 – Palomar Mountain/NEAT MPS 139245
2005 06 20.45810 22 27 32.56 -21 39 17.0 20.6   644 – Palomar Mountain/NEAT MPS 139245
2005 06 20.46915 22 27 32.95 -21 39 16.6 20.5   644 – Palomar Mountain/NEAT MPS 139245
2005 07 29.39833 22 27 38.18 -22 28 19.3 18.8   644 – Palomar Mountain/NEAT MPS 139245
2005 07 29.41969 22 27 37.32 -22 28 22.4 18.7   644 – Palomar Mountain/NEAT MPS 139245
2005 07 29.44038 22 27 36.50 -22 28 25.8 18.8   644 – Palomar Mountain/NEAT MPS 139245
2005 08 28.47256 21 59 30.80 -23 11 17.8 18.6 V E12 – Siding Spring Survey MPS 140084
2005 08 28.48021 21 59 30.26 -23 11 17.6 18.5 V E12 – Siding Spring Survey MPS 140084
2005 08 28.48790 21 59 29.76 -23 11 17.5 18.9 V E12 – Siding Spring Survey MPS 140084
2005 08 28.49562 21 59 29.25 -23 11 17.1 18.6 V E12 – Siding Spring Survey MPS 140084
2005 08 30.21304 21 57 41.80 -23 09 36.9 18.1 R 699 – Lowell Observatory-LONEOS MPS 140084
2005 08 30.22854 21 57 40.84 -23 09 36.5   699 – Lowell Observatory-LONEOS MPS 140084
2005 08 30.24402 21 57 39.80 -23 09 34.2   699 – Lowell Observatory-LONEOS MPS 140084
2005 08 30.25954 21 57 38.80 -23 09 33.6   699 – Lowell Observatory-LONEOS MPS 140084
2005 09 08.55432 21 48 43.02 -22 48 34.8 18.7 V E12 – Siding Spring Survey MPS 140983
2005 09 08.56308 21 48 42.48 -22 48 32.4 18.5 V E12 – Siding Spring Survey MPS 140983
2005 09 08.57192 21 48 42.01 -22 48 30.2 18.2 V E12 – Siding Spring Survey MPS 140983
2005 09 08.58071 21 48 41.58 -22 48 28.7 18.3 V E12 – Siding Spring Survey MPS 140983
2005 10 04.11109 21 36 47.30 -20 23 17.7 19.5 R 644 – Palomar Mountain/NEAT MPS 143546
2005 10 04.13236 21 36 47.23 -20 23 07.7 19.1 R 644 – Palomar Mountain/NEAT MPS 143546
2005 10 04.15822 21 36 47.12 -20 22 55.8 19.3 R 644 – Palomar Mountain/NEAT MPS 143546
2005 11 06.12716 21 53 51.14 -15 10 02.6 20.0 V G96 – Mt. Lemmon Survey MPS 149250
2005 11 06.13576 21 53 51.61 -15 09 56.8 20.0 V G96 – Mt. Lemmon Survey MPS 149250
2005 11 06.14440 21 53 52.11 -15 09 51.3 19.8 V G96 – Mt. Lemmon Survey MPS 149250
2005 11 06.15297 21 53 52.62 -15 09 45.2 19.5 V G96 – Mt. Lemmon Survey MPS 149250
2005 12 02.07193 22 25 41.82 -10 02 54.9   291 – LPL/Spacewatch II MPS 153454
2005 12 02.07691 22 25 42.25 -10 02 51.1   291 – LPL/Spacewatch II MPS 153454
2005 12 02.08115 22 25 42.60 -10 02 47.9   291 – LPL/Spacewatch II MPS 153454
2009 07 20.70138 22 23 30.01 -23 13 06.9 19.3 V E12 – Siding Spring Survey MPS 289800
2009 07 20.71064 22 23 29.79 -23 13 08.7 19.5 V E12 – Siding Spring Survey MPS 289800
2009 07 20.71944 22 23 29.43 -23 13 09.9 18.5 V E12 – Siding Spring Survey MPS 289800
2009 07 20.72825 22 23 29.29 -23 13 11.3 19.9 V E12 – Siding Spring Survey MPS 289800
2009 08 29.29552 21 48 48.78 -24 15 52.0 19.1 V 703 – Catalina Sky Survey MPS 294373
2009 08 29.30053 21 48 48.49 -24 15 51.3 18.6 V 703 – Catalina Sky Survey MPS 294373
2009 08 29.30545 21 48 48.13 -24 15 51.1 18.9 V 703 – Catalina Sky Survey MPS 294373
2009 08 29.31027 21 48 47.91 -24 15 49.8 18.4 V 703 – Catalina Sky Survey MPS 294373
2009 10 13.10653 21 30 50.73 -19 58 11.0 19.7   704 – Lincoln Laboratory ETS, New Mexico MPS 298240
2009 10 13.13332 21 30 51.31 -19 57 56.6 20.0   704 – Lincoln Laboratory ETS, New Mexico MPS 298240
2009 10 13.14674 21 30 51.58 -19 57 48.9 19.8   704 – Lincoln Laboratory ETS, New Mexico MPS 298240
2009 10 20.08560 21 34 08.94 -18 52 54.5 20.0   704 – Lincoln Laboratory ETS, New Mexico MPS 299283
2009 10 20.09931 21 34 09.40 -18 52 47.1 20.2   704 – Lincoln Laboratory ETS, New Mexico MPS 299283
2009 10 20.12675 21 34 10.22 -18 52 30.5 19.9   704 – Lincoln Laboratory ETS, New Mexico MPS 299283
2011 01 25.36772 09 42 04.50 +25 42 26.9 20.1 V G96 – Mt. Lemmon Survey MPS 368397
2011 01 30.37810 09 36 45.38 +26 01 01.9 19.7 R H15 – ISON-NM Observatory, Mayhill MPS 371291
2011 01 30.39217 09 36 44.44 +26 01 04.6 19.7 R H15 – ISON-NM Observatory, Mayhill MPS 371291
2011 01 30.40707 09 36 43.45 +26 01 07.4 19.8 R H15 – ISON-NM Observatory, Mayhill MPS 371291
2011 01 30.42160 09 36 42.48 +26 01 10.2 19.7 R H15 – ISON-NM Observatory, Mayhill MPS 369356
2011 02 05.41292 09 30 02.70 +26 19 44.0 19.9 V G96 – Mt. Lemmon Survey MPS 371291
2011 02 05.41934 09 30 02.30 +26 19 45.1 20.0 V G96 – Mt. Lemmon Survey MPS 371291
2011 02 05.42579 09 30 01.83 +26 19 45.7 20.1 V G96 – Mt. Lemmon Survey MPS 371291
2011 02 05.43553 09 30 01.15 +26 19 47.1 19.8 V G96 – Mt. Lemmon Survey MPS 371291
2013 09 01.39037 21 32 49.042 -25 29 50.33 19.3 g F51 – Pan-STARRS 1, Haleakala MPS 475896
2013 09 01.40054 21 32 48.438 -25 29 48.65 19.4 g F51 – Pan-STARRS 1, Haleakala MPS 475896
2013 09 01.41045 21 32 47.846 -25 29 47.17 18.9 r F51 – Pan-STARRS 1, Haleakala MPS 475896
2013 09 01.42013 21 32 47.272 -25 29 45.57 18.9 r F51 – Pan-STARRS 1, Haleakala MPS 475896
